Location: Peebles
(55.6412°N, 3.1714°W)
Time: 17:55:39
(UTC+01:00)

Cosmos 1934 Rocket - Pass Details

Date: 02 February 2022
Orbit: 938 x 999 km, 83.0° (Epoch: 25 May)

Event Time Altitude Azimuth Distance (km) Brightness Sun altitude
Rises 05:53:31 0° 159° (SSE) 3,682 7.3 -18.4°
Reaches altitude 10° 05:56:12 10° 152° (SSE) 2,729 6.8 -18.0°
Maximum altitude 06:01:51 37° 87° (E) 1,460 5.6 -17.2°
Drops below altitude 10° 06:07:27 10° 22° (NNE) 2,707 6.5 -16.5°
Sets 06:10:06 0° 15° (NNE) 3,649 7.1 -16.1°
